Weather History for Stuart, FL

Change the Weather History Date:

Thursday, November 22, 2012

  Actual Average Record
Temperature  
Mean Temperature 63 °F -  
Max Temperature 71 °F 77 °F 88 °F (1948)
Min Temperature 55 °F 60 °F 41 °F (2006)
Degree Days  
Heating Degree Days 2    
Growing Degree Days 13 (Base 50)    
Moisture  
Dew Point 48 °F    
Average Humidity 65    
Maximum Humidity 82    
Minimum Humidity 46    
Precipitation  
Precipitation 0.00 in - - ()
Sea Level Pressure  
Sea Level Pressure 30.08 in    
Wind  
Wind Speed 11 mph (NW)    
Max Wind Speed 20 mph    
Max Gust Speed 28 mph    
Visibility 9 miles    
Events      
Averages and records for this station are not official NWS values.
T = Trace of Precipitation, MM = Missing Value Source: NWS Daily Summary

Daily Weather History Graph

Daily Weather History Graph

Search for Another Location

Airport:

Trip Planner

Search our weather history database for the weather conditions in past years. The results will help you decide how hot, cold, wet, or windy it might be!

Date:

Astronomy

Nov. 22, 2012 Rise Set
Actual Time 6:46 AM EST 5:27 PM EST
Civil Twilight 6:21 AM EST 5:52 PM EST
Nautical Twilight 5:53 AM EST 6:20 PM EST
Astronomical Twilight 5:25 AM EST 6:48 PM EST
Moon 1:48 PM EST (11/22) 1:32 AM EST (11/22)
Length of Visible Light 11h 30m
Length of Day
10h 40m
Waxing Gibbous, 71% of the Moon is Illuminated
Nov 22
Waxing Gibbous
Nov 28
Full
Dec 6
Last Quarter
Dec 13
New
Dec 20
First Quarter

Hourly Weather History & Observations

Time (EST) Temp. Dew Point Humidity Pressure Visibility Wind Dir Wind Speed Gust Speed Precip Events Conditions
12:15 AM 60.8 °F 50.0 °F 68% 30.05 in 10.0 mi NW 9.2 mph 16.1 mph N/A   Clear
12:35 AM 59.0 °F 48.2 °F 67% 30.05 in 10.0 mi NW 11.5 mph - N/A   Clear
12:55 AM 59.0 °F 46.4 °F 63% 30.05 in 10.0 mi NW 11.5 mph 16.1 mph N/A   Clear
1:15 AM 59.0 °F 46.4 °F 63% 30.04 in 10.0 mi NW 8.1 mph - N/A   Clear
1:35 AM 59.0 °F 46.4 °F 63% 30.04 in 10.0 mi NW 9.2 mph - N/A   Clear
1:55 AM 59.0 °F 48.2 °F 67% 30.04 in 10.0 mi NW 10.4 mph - N/A   Clear
2:15 AM 59.0 °F 48.2 °F 67% 30.03 in 10.0 mi NW 10.4 mph 16.1 mph N/A   Clear
2:35 AM 59.0 °F 50.0 °F 72% 30.03 in 10.0 mi NW 9.2 mph - N/A   Clear
2:55 AM 57.2 °F 50.0 °F 77% 30.02 in 10.0 mi NW 9.2 mph 17.3 mph N/A   Clear
3:15 AM 57.2 °F 50.0 °F 77% 30.02 in 10.0 mi NW 10.4 mph - N/A   Clear
3:35 AM 57.2 °F 50.0 °F 77% 30.02 in 10.0 mi NW 9.2 mph - N/A   Clear
3:55 AM 55.4 °F 50.0 °F 82% 30.02 in 10.0 mi NW 10.4 mph - N/A   Clear
4:15 AM 55.4 °F 50.0 °F 82% 30.02 in 10.0 mi NW 12.7 mph 18.4 mph N/A   Clear
4:35 AM 55.4 °F 50.0 °F 82% 30.03 in 10.0 mi NW 9.2 mph - N/A   Clear
4:55 AM 55.4 °F 50.0 °F 82% 30.03 in 10.0 mi NW 10.4 mph - N/A   Clear
5:15 AM 55.4 °F 50.0 °F 82% 30.03 in 10.0 mi NW 9.2 mph - N/A   Clear
6:47 AM 55.4 °F 50.0 °F 82% 30.05 in 10.0 mi WNW 9.2 mph - N/A   Clear
7:47 AM 57.2 °F 50.0 °F 77% 30.07 in 7.0 mi NNW 13.8 mph 19.6 mph N/A   Clear
8:47 AM 62.6 °F 51.8 °F 68% 30.08 in 7.0 mi NW 10.4 mph 20.7 mph N/A   Clear
10:47 AM 68.0 °F 50.0 °F 52% 30.10 in 7.0 mi NNW 11.5 mph 20.7 mph N/A   Clear
11:47 AM 71.6 °F 50.0 °F 46% 30.07 in 7.0 mi North 18.4 mph 27.6 mph N/A   Clear
12:47 PM 71.6 °F 50.0 °F 46% 30.06 in 7.0 mi North 15.0 mph 24.2 mph N/A   Partly Cloudy
1:47 PM 69.8 °F 50.0 °F 49% 30.05 in 7.0 mi North 18.4 mph 26.5 mph N/A   Partly Cloudy
2:47 PM 68.0 °F 50.0 °F 52% 30.06 in 7.0 mi North 19.6 mph 26.5 mph N/A   Partly Cloudy
3:47 PM 68.0 °F 48.2 °F 49% 30.06 in 7.0 mi North 15.0 mph 23.0 mph N/A   Partly Cloudy
4:47 PM 66.2 °F 48.2 °F 52% 30.08 in 7.0 mi NNW 13.8 mph 23.0 mph N/A   Clear
5:55 PM 64.4 °F 48.2 °F 56% 30.09 in 10.0 mi NNW 11.5 mph 16.1 mph N/A   Clear
7:15 PM 60.8 °F 46.4 °F 59% 30.12 in 10.0 mi NW 12.7 mph 19.6 mph N/A   Clear
7:35 PM 60.8 °F 46.4 °F 59% 30.12 in 10.0 mi NW 9.2 mph - N/A   Clear
7:55 PM 60.8 °F 46.4 °F 59% 30.13 in 10.0 mi NW 10.4 mph - N/A   Clear
8:15 PM 59.0 °F 46.4 °F 63% 30.14 in 10.0 mi NW 9.2 mph 17.3 mph N/A   Clear
8:35 PM 59.0 °F 46.4 °F 63% 30.14 in 10.0 mi NW 11.5 mph 18.4 mph N/A   Clear
8:55 PM 59.0 °F 46.4 °F 63% 30.14 in 10.0 mi NW 10.4 mph 17.3 mph N/A   Clear
9:15 PM 59.0 °F 44.6 °F 59% 30.14 in 10.0 mi NW 10.4 mph 19.6 mph N/A   Clear
9:35 PM 59.0 °F 44.6 °F 59% 30.14 in 10.0 mi NW 10.4 mph 16.1 mph N/A   Clear
9:55 PM 59.0 °F 46.4 °F 63% 30.15 in 10.0 mi NW 11.5 mph 19.6 mph N/A   Clear
10:15 PM 57.2 °F 46.4 °F 67% 30.15 in 10.0 mi NW 9.2 mph 18.4 mph N/A   Clear
10:35 PM 57.2 °F 46.4 °F 67% 30.15 in 10.0 mi NW 12.7 mph 17.3 mph N/A   Clear
10:55 PM 57.2 °F 46.4 °F 67% 30.14 in 10.0 mi NW 11.5 mph 16.1 mph N/A   Clear
11:15 PM 57.2 °F 46.4 °F 67% 30.14 in 10.0 mi NW 11.5 mph 17.3 mph N/A   Clear
11:35 PM 57.2 °F 46.4 °F 67% 30.13 in 10.0 mi NW 10.4 mph 19.6 mph N/A   Clear
11:55 PM 57.2 °F 46.4 °F 67% 30.13 in 10.0 mi NNW 9.2 mph 16.1 mph N/A   Clear